Meteo pe oră la Allmersbach

Astăzi, 16 Ianuarie, Sâmbătă

Timp Temperatura Precipitaţii Vânt Presiune Umiditate
00:00 -4°C° 0 mm 0 m/s 737 mmHg 96%
01:00 -4°C° 0 mm 0 m/s 737 mmHg 95%
02:00 -4°C° 0 mm 1 m/s 737 mmHg 96%
03:00 -4°C° 0 mm 1 m/s 737 mmHg 96%
04:00 -4°C° 0 mm 1 m/s 737 mmHg 96%
05:00 -4°C° 0 mm 1 m/s 737 mmHg 96%
06:00 -3°C° 0 mm 1 m/s 737 mmHg 96%
07:00 -3°C° 0 mm 1 m/s 737 mmHg 96%
08:00 -3°C° 0.1 mm 1 m/s 737 mmHg 95%
09:00 -3°C° 0.1 mm 1 m/s 737 mmHg 93%
10:00 -2°C° 0.1 mm 1 m/s 737 mmHg 92%
11:00 -4°C° 0 mm 2 m/s 736 mmHg 90%
12:00 -3°C° 0 mm 2 m/s 736 mmHg 87%
13:00 -3°C° 0 mm 2 m/s 736 mmHg 85%
14:00 -3°C° 0 mm 2 m/s 735 mmHg 86%
15:00 -3°C° 0 mm 2 m/s 735 mmHg 87%
16:00 -3°C° 0 mm 2 m/s 734 mmHg 87%
17:00 -2°C° 0 mm 1 m/s 734 mmHg 89%
18:00 -3°C° 0 mm 1 m/s 734 mmHg 91%
19:00 -3°C° 0 mm 1 m/s 733 mmHg 93%
20:00 -3°C° 0 mm 1 m/s 733 mmHg 92%
21:00 -3°C° 0 mm 1 m/s 733 mmHg 91%
22:00 -3°C° 0 mm 1 m/s 733 mmHg 90%
23:00 -3°C° 0 mm 1 m/s 732 mmHg 90%

Mâine, 17 Ianuarie, Duminică

Timp Temperatura Precipitaţii Vânt Presiune Umiditate
00:00 -3°C° 0 mm 1 m/s 732 mmHg 90%
01:00 -3°C° 0 mm 1 m/s 731 mmHg 90%
02:00 -2°C° 0.3 mm 1 m/s 731 mmHg 92%
03:00 -2°C° 0.3 mm 1 m/s 730 mmHg 94%
04:00 -4°C° 0.3 mm 2 m/s 730 mmHg 96%
05:00 -2°C° 0.4 mm 1 m/s 729 mmHg 96%
06:00 -2°C° 0.4 mm 1 m/s 729 mmHg 97%
07:00 -1°C° 0.4 mm 1 m/s 729 mmHg 97%
08:00 -2°C° 0.4 mm 2 m/s 729 mmHg 97%
09:00 -2°C° 0.4 mm 2 m/s 730 mmHg 98%
10:00 -1°C° 0.4 mm 3 m/s 730 mmHg 98%
11:00 -1°C° 0.7 mm 3 m/s 730 mmHg 98%
12:00 -1°C° 0.7 mm 4 m/s 730 mmHg 98%
13:00 -1°C° 0.7 mm 4 m/s 730 mmHg 98%
14:00 -1°C° 1.3 mm 4 m/s 730 mmHg 98%
15:00 -1°C° 1.3 mm 4 m/s 731 mmHg 98%
16:00 -2°C° 1.3 mm 4 m/s 731 mmHg 98%
17:00 -2°C° 0.4 mm 4 m/s 732 mmHg 98%
18:00 -2°C° 0.4 mm 4 m/s 732 mmHg 98%
19:00 -1°C° 0.4 mm 3 m/s 733 mmHg 98%
20:00 -1°C° 0.2 mm 3 m/s 733 mmHg 98%
21:00 -1°C° 0.2 mm 3 m/s 734 mmHg 98%
22:00 -1°C° 0.2 mm 3 m/s 734 mmHg 98%
23:00 -1°C° 0.2 mm 3 m/s 734 mmHg 98%

Poimâine, 18 Ianuarie, Luni

Timp Temperatura Precipitaţii Vânt Presiune Umiditate
00:00 -1°C° 0.2 mm 3 m/s 735 mmHg 98%
01:00 -1°C° 0.2 mm 3 m/s 735 mmHg 98%
02:00 -1°C° 0.3 mm 3 m/s 735 mmHg 98%
03:00 -1°C° 0.3 mm 3 m/s 735 mmHg 98%
04:00 -2°C° 0.3 mm 4 m/s 735 mmHg 97%
05:00 -1°C° 0.2 mm 3 m/s 735 mmHg 97%
06:00 -1°C° 0.2 mm 3 m/s 736 mmHg 97%
07:00 -2°C° 0.2 mm 3 m/s 736 mmHg 97%
08:00 -2°C° 0.2 mm 3 m/s 736 mmHg 97%
09:00 -1°C° 0.2 mm 3 m/s 736 mmHg 96%
10:00 -1°C° 0.2 mm 3 m/s 737 mmHg 96%
11:00 -1°C° 0 mm 3 m/s 737 mmHg 96%
12:00 -1°C° 0 mm 3 m/s 736 mmHg 97%
13:00 -1°C° 0 mm 2 m/s 736 mmHg 97%
14:00 -1°C° 0.1 mm 2 m/s 736 mmHg 97%
15:00 -1°C° 0.1 mm 2 m/s 736 mmHg 97%
16:00 -1°C° 0.1 mm 2 m/s 736 mmHg 97%
17:00 -1°C° 0 mm 2 m/s 736 mmHg 96%
18:00 0°C° 0 mm 1 m/s 736 mmHg 96%
19:00 0°C° 0 mm 1 m/s 736 mmHg 95%
20:00 -1°C° 0 mm 1 m/s 736 mmHg 94%
21:00 -1°C° 0 mm 1 m/s 736 mmHg 94%
22:00 -2°C° 0 mm 1 m/s 735 mmHg 93%
23:00 -2°C° 0 mm 1 m/s 735 mmHg 92%

19 Ianuarie, Marţi

Timp Temperatura Precipitaţii Vânt Presiune Umiditate
00:00 -4°C° 0 mm 2 m/s 735 mmHg 91%
01:00 -4°C° 0 mm 2 m/s 735 mmHg 90%
02:00 -4°C° 0 mm 2 m/s 734 mmHg 89%
03:00 -4°C° 0 mm 2 m/s 733 mmHg 88%
04:00 -4°C° 0 mm 2 m/s 733 mmHg 87%
05:00 -4°C° 0 mm 2 m/s 733 mmHg 86%
06:00 -4°C° 0 mm 2 m/s 732 mmHg 84%
07:00 -3°C° 0 mm 2 m/s 732 mmHg 83%
08:00 -2°C° 0 mm 2 m/s 732 mmHg 82%
09:00 -1°C° 0 mm 3 m/s 731 mmHg 81%
10:00 0°C° 0 mm 3 m/s 731 mmHg 81%
11:00 0°C° 0 mm 3 m/s 731 mmHg 84%
12:00 +1°C° 0 mm 3 m/s 730 mmHg 88%
13:00 +2°C° 0 mm 3 m/s 730 mmHg 92%
14:00 +3°C° 0 mm 2 m/s 729 mmHg 92%
15:00 +3°C° 0 mm 2 m/s 729 mmHg 93%
16:00 +3°C° 0 mm 2 m/s 729 mmHg 93%
17:00 +2°C° 0 mm 2 m/s 728 mmHg 91%
18:00 +2°C° 0 mm 2 m/s 728 mmHg 88%
19:00 +1°C° 0 mm 2 m/s 728 mmHg 86%
20:00 +1°C° 0 mm 2 m/s 728 mmHg 83%
21:00 +1°C° 0 mm 2 m/s 728 mmHg 81%
22:00 +1°C° 0 mm 2 m/s 727 mmHg 78%
23:00 0°C° 0 mm 3 m/s 727 mmHg 77%

20 Ianuarie, Miercuri

Timp Temperatura Precipitaţii Vânt Presiune Umiditate
00:00 0°C° 0 mm 3 m/s 727 mmHg 76%
01:00 0°C° 0 mm 3 m/s 727 mmHg 75%
02:00 0°C° 0 mm 3 m/s 726 mmHg 77%
03:00 +1°C° 0 mm 3 m/s 726 mmHg 78%
04:00 +1°C° 0 mm 3 m/s 726 mmHg 80%
05:00 +1°C° 0 mm 3 m/s 725 mmHg 81%
06:00 +1°C° 0 mm 3 m/s 725 mmHg 82%
07:00 +1°C° 0 mm 3 m/s 725 mmHg 82%
08:00 +2°C° 0 mm 3 m/s 724 mmHg 83%
09:00 +2°C° 0 mm 3 m/s 724 mmHg 83%
10:00 +2°C° 0 mm 3 m/s 724 mmHg 83%
11:00 +3°C° 0 mm 3 m/s 724 mmHg 83%
12:00 +3°C° 0 mm 3 m/s 723 mmHg 83%
13:00 +3°C° 0 mm 3 m/s 723 mmHg 83%
14:00 +3°C° 0 mm 3 m/s 722 mmHg 82%
15:00 +3°C° 0 mm 3 m/s 721 mmHg 81%
16:00 +4°C° 0 mm 2 m/s 721 mmHg 80%
17:00 +3°C° 0 mm 2 m/s 721 mmHg 80%
18:00 +2°C° 0 mm 2 m/s 720 mmHg 80%
19:00 +1°C° 0 mm 2 m/s 720 mmHg 79%
20:00 +1°C° 0 mm 2 m/s 720 mmHg 79%
21:00 +1°C° 0 mm 2 m/s 720 mmHg 79%
22:00 +1°C° 0 mm 2 m/s 719 mmHg 80%
23:00 +1°C° 0 mm 2 m/s 719 mmHg 79%

21 Ianuarie, Joi

Timp Temperatura Precipitaţii Vânt Presiune Umiditate
00:00 +1°C° 0 mm 2 m/s 719 mmHg 78%
01:00 +1°C° 0 mm 2 m/s 719 mmHg 77%
02:00 +2°C° 0 mm 2 m/s 719 mmHg 78%
03:00 +2°C° 0 mm 2 m/s 718 mmHg 78%
04:00 +2°C° 0 mm 2 m/s 718 mmHg 78%
05:00 +2°C° 0 mm 3 m/s 718 mmHg 77%
06:00 +2°C° 0 mm 3 m/s 718 mmHg 76%
07:00 +3°C° 0 mm 4 m/s 719 mmHg 75%
08:00 +3°C° 0.1 mm 4 m/s 719 mmHg 78%
09:00 +3°C° 0.1 mm 4 m/s 719 mmHg 81%
10:00 +3°C° 0.1 mm 4 m/s 720 mmHg 84%
11:00 +3°C° 1 mm 4 m/s 720 mmHg 88%
12:00 +2°C° 1 mm 3 m/s 720 mmHg 92%
13:00 +2°C° 1 mm 3 m/s 721 mmHg 95%
14:00 +2°C° 0.4 mm 3 m/s 721 mmHg 94%
15:00 +3°C° 0.4 mm 2 m/s 721 mmHg 93%
16:00 +3°C° 0.4 mm 2 m/s 721 mmHg 92%
17:00 +3°C° 0.1 mm 2 m/s 721 mmHg 92%
18:00 +3°C° 0.1 mm 2 m/s 722 mmHg 91%
19:00 +2°C° 0.1 mm 2 m/s 722 mmHg 90%
20:00 +2°C° 0 mm 2 m/s 722 mmHg 91%
21:00 +2°C° 0 mm 2 m/s 722 mmHg 91%
22:00 +2°C° 0 mm 2 m/s 722 mmHg 92%
23:00 +2°C° 0 mm 2 m/s 722 mmHg 92%
Arată mai mult

Formular de consimțământ

Meteoprog și furnizorii noștri de servicii pot stoca și accesa date personale, precum cookies, identificatori de dispozitiv sau alte tehnologii similare pe dispozitivul dumneavoastră și procesa astfel de date pentru a personaliza conținutul și reclamele, dar și pentru a oferi caracteristici de social media și pentru a analiza traficul.

  • Stocarea și/sau accesarea informațiilor pe dispozitivul dumneavoastră

    Cookies, identificatori de dispozitiv sau alte informații pot fi stocate sau accesate pe dispozitiv în scopurile indicate mai sus.

  • Reclame și conținut personalizat, evaluarea reclamelor și a conținutului, informații despre audiențe și dezvoltarea produselor

    Reclamele și conținutul pot fi personalizate pe baza unui profil. Pot fi adăugate date suplimentare pentru a personaliza mai bine reclamele și conținutul. Performanța reclamelor și conținutului poate fi măsurată. Pot fi obținute informații despre utilizatorii care au văzut reclamele și conținutul. Aceste date pot fi utilizate pentru a dezvolta sau îmbunătăți experiența utilizatorilor, sistemele și software-ul.

Dând clic pe ‘Sunt de acord’, permiteți utilizarea cookie-urilor menționate, a identificatorilor de dispozitiv, balizelor web sau altor tehnologii similare. Setările pot fi modificate din browser-ul dispozitivului dumneavoastră.

În anumite scopuri, interesele legitime pot prima asupra consimțământului. Puteți citi mai multe informații în acest sens în Politica privind Confidențialitatea Datelor și Cookie.